Date String (YYYY-MM-DD hh:mm:ss) UTC,Instrument flags,absolute air pressure of the measurement (hPa),sample flow rate (lpm),inlet stack bypass flow (lpm),air temperature of the measurement (°C),ambient temperature measured by the external sensor (°C),aerosol sample conditioner tube jacket temperature (°C),OPC LED temperature (°C),internal box temperature (°C),relative humidity of the measurement (%),span deviation,mass concentration of particles derived from Lorenz-Mie calculation of OPC scattering (μg/m³),mass concentration of particles derived from Lorenz-Mie calculation of OPC scattering (μg/m³),mass concentration of particles derived from Lorenz-Mie calculation of OPC scattering (μg/m³)
DateTimeUTC,F1_M11,P_M11,Q1_M11,Q2_M11,T1_M11,T2_M11,T3_M11,T4_M11,T5_M11,U1_M11,ZSPAN_M11,X2_M11,X0_M11,X1_M11
2023-11-23 04:00:00,SystemResetWarning,0827.9,5.00,000.00,025.8,024.9,000.0,034.0,027.2,8.4,0000.0,0000.68,0001.25,0000.48
2023-11-23 04:01:00,SystemResetWarning,0827.9,4.99,000.00,025.8,025.0,000.0,034.0,027.2,8.5,0000.0,0000.69,0001.32,0000.48
2023-11-23 04:02:00,SystemResetWarning,0827.9,5.00,000.00,025.8,025.0,000.0,034.1,027.2,8.6,0000.0,0000.71,0002.23,0000.48
2023-11-23 04:03:00,SystemResetWarning,0827.9,5.00,000.00,025.9,025.0,000.0,034.1,027.2,8.6,0000.0,0000.72,0002.43,0000.48
2023-11-23 04:04:00,SystemResetWarning,0827.9,5.00,000.00,025.9,025.0,000.0,034.1,027.2,8.4,0000.0,0000.75,0002.52,0000.49
2023-11-23 04:05:00,SystemResetWarning,0828.0,5.00,000.00,025.9,025.0,000.0,034.1,027.2,8.4,0000.0,0000.80,0002.67,0000.49
2023-11-23 04:06:00,SystemResetWarning,0828.0,5.00,000.00,025.9,025.1,000.0,034.1,027.2,8.4,0000.0,0000.85,0003.98,0000.49
2023-11-23 04:07:00,SystemResetWarning,0828.0,5.01,000.00,025.9,025.1,000.0,034.1,027.2,8.4,0000.0,0000.91,0004.63,0000.49
2023-11-23 04:08:00,SystemResetWarning,0828.0,5.00,000.00,025.9,025.1,000.0,034.1,027.3,8.4,0000.0,0000.88,0004.53,0000.49
2023-11-23 04:09:00,SystemResetWarning,0828.0,5.01,000.00,025.9,025.1,000.0,034.1,027.3,8.4,0000.0,0000.88,0004.59,0000.50
2023-11-23 04:10:00,SystemResetWarning,0828.0,5.00,000.00,025.9,025.1,000.0,034.1,027.3,8.3,0000.0,0000.90,0005.77,0000.49
2023-11-23 04:11:00,SystemResetWarning,0828.0,5.00,000.00,026.0,025.1,000.0,034.1,027.3,8.3,0000.0,0000.98,0006.81,0000.49
2023-11-23 04:12:00,SystemResetWarning,0828.0,4.99,000.00,026.0,025.1,000.0,034.2,027.3,8.3,0000.0,0001.03,0007.26,0000.51
2023-11-23 04:13:00,SystemResetWarning,0828.0,4.99,000.00,026.0,025.1,000.0,034.2,027.3,8.2,0000.0,0001.08,0006.64,0000.51
2023-11-23 04:14:00,SystemResetWarning,0828.0,4.99,000.00,026.0,025.1,000.0,034.2,027.3,8.3,0000.0,0001.13,0007.04,0000.53
2023-11-23 04:15:00,SystemResetWarning,0828.0,5.00,000.00,026.0,025.1,000.0,034.2,027.3,8.4,0000.0,0001.15,0007.16,0000.53
2023-11-23 04:16:00,SystemResetWarning,0828.0,5.00,000.00,026.0,025.1,000.0,034.2,027.3,8.4,0000.0,0001.14,0007.45,0000.53
2023-11-23 04:17:00,SystemResetWarning,0828.0,5.00,000.00,026.0,025.2,000.0,034.2,027.3,8.4,0000.0,0001.12,0006.64,0000.53
2023-11-23 04:18:00,SystemResetWarning,0828.0,5.00,000.00,026.0,025.2,000.0,034.2,027.3,8.4,0000.0,0001.10,0006.73,0000.53
2023-11-23 04:19:00,SystemResetWarning,0828.0,5.00,000.00,026.0,025.2,000.0,034.2,027.3,8.4,0000.0,0001.14,0007.37,0000.52
2023-11-23 04:20:00,SystemResetWarning,0828.0,5.00,000.00,026.0,025.2,000.0,034.3,027.4,8.4,0000.0,0001.15,0007.61,0000.50
2023-11-23 04:21:00,SystemResetWarning,0827.9,5.00,000.00,026.0,025.2,000.0,034.3,027.4,8.4,0000.0,0001.13,0007.00,0000.50
2023-11-23 04:22:00,SystemResetWarning,0827.9,5.00,000.00,026.1,025.2,000.0,034.3,027.4,8.4,0000.0,0001.14,0006.34,0000.51
2023-11-23 04:23:00,SystemResetWarning,0827.9,5.00,000.00,026.1,025.2,000.0,034.3,027.4,8.4,0000.0,0001.19,0006.20,0000.52
2023-11-23 04:24:00,SystemResetWarning,0827.9,5.00,000.00,026.1,025.2,000.0,034.3,027.4,8.4,0000.0,0001.17,0006.21,0000.53
2023-11-23 04:25:00,SystemResetWarning,0827.9,4.99,000.00,026.1,025.2,000.0,034.3,027.4,8.3,0000.0,0001.15,0005.72,0000.53
2023-11-23 04:26:00,SystemResetWarning,0827.9,5.00,000.00,026.1,025.2,000.0,034.3,027.4,8.3,0000.0,0001.15,0005.79,0000.53
2023-11-23 04:27:00,SystemResetWarning,0828.0,5.00,000.00,026.1,025.2,000.0,034.3,027.4,8.4,0000.0,0001.17,0005.35,0000.54
2023-11-23 04:28:00,SystemResetWarning,0827.9,5.00,000.00,026.1,025.2,000.0,034.3,027.4,8.4,0000.0,0001.19,0005.08,0000.56
2023-11-23 04:29:00,SystemResetWarning,0827.9,5.00,000.00,026.1,025.2,000.0,034.3,027.4,8.4,0000.0,0001.19,0004.42,0000.57
2023-11-23 04:30:00,SystemResetWarning,0828.0,5.01,000.00,026.1,025.2,000.0,034.3,027.4,8.4,0000.0,0001.16,0003.80,0000.59
2023-11-23 04:31:00,SystemResetWarning,0828.0,5.00,000.00,026.1,025.2,000.0,034.3,027.4,8.4,0000.0,0001.12,0003.28,0000.60
2023-11-23 04:32:00,SystemResetWarning,0828.1,5.00,000.00,026.1,025.2,000.0,034.3,027.4,8.5,0000.0,0001.12,0003.62,0000.61
2023-11-23 04:33:00,SystemResetWarning,0828.1,5.00,000.00,026.1,025.3,000.0,034.4,027.4,8.5,0000.0,0001.09,0003.77,0000.62
2023-11-23 04:34:00,SystemResetWarning,0828.1,5.00,000.00,026.1,025.3,000.0,034.4,027.4,8.5,0000.0,0001.10,0005.48,0000.63
2023-11-23 04:35:00,SystemResetWarning,0828.1,5.00,000.00,026.1,025.3,000.0,034.4,027.5,8.5,0000.0,0001.12,0005.91,0000.63
2023-11-23 04:36:00,SystemResetWarning,0828.1,5.00,000.00,026.1,025.3,000.0,034.4,027.4,8.5,0000.0,0001.18,0006.75,0000.65
2023-11-23 04:37:00,SystemResetWarning,0828.1,5.00,000.00,026.1,025.3,000.0,034.4,027.4,8.5,0000.0,0001.19,0007.52,0000.66
2023-11-23 04:38:00,SystemResetWarning,0828.1,5.00,000.00,026.1,025.3,000.0,034.4,027.4,8.5,0000.0,0001.24,0008.94,0000.66
2023-11-23 04:39:00,SystemResetWarning,0828.1,5.01,000.00,026.1,025.3,000.0,034.4,027.5,8.5,0000.0,0001.28,0009.54,0000.67
2023-11-23 04:40:00,SystemResetWarning,0828.1,5.00,000.00,026.2,025.3,000.0,034.4,027.5,8.4,0000.0,0001.39,0010.05,0000.68
2023-11-23 04:41:00,SystemResetWarning,0828.1,5.00,000.00,026.2,025.3,000.0,034.4,027.5,8.4,0000.0,0001.48,0010.61,0000.70
2023-11-23 04:42:00,SystemResetWarning,0828.1,5.00,000.00,026.2,025.3,000.0,034.4,027.5,8.4,0000.0,0001.51,0011.21,0000.71
2023-11-23 04:43:00,SystemResetWarning,0828.1,5.00,000.00,026.2,025.3,000.0,034.4,027.5,8.4,0000.0,0001.56,0010.99,0000.72
2023-11-23 04:44:00,SystemResetWarning,0828.1,5.00,000.00,026.2,025.3,000.0,034.4,027.5,8.4,0000.0,0001.56,0010.96,0000.72
2023-11-23 04:45:00,SystemResetWarning,0828.1,5.00,000.00,026.2,025.3,000.0,034.4,027.5,8.4,0000.0,0001.62,0010.31,0000.73
2023-11-23 04:46:00,SystemResetWarning,0828.1,5.00,000.00,026.2,025.3,000.0,034.4,027.5,8.4,0000.0,0001.67,0010.61,0000.73
2023-11-23 04:47:00,SystemResetWarning,0828.1,5.00,000.00,026.2,025.3,000.0,034.4,027.5,8.4,0000.0,0001.61,0010.01,0000.72
2023-11-23 04:48:00,SystemResetWarning,0828.1,4.99,000.00,026.2,025.3,000.0,034.4,027.5,8.4,0000.0,0001.59,0009.63,0000.71
2023-11-23 04:49:00,SystemResetWarning,0828.1,5.00,000.00,026.2,025.3,000.0,034.4,027.5,8.4,0000.0,0001.57,0008.69,0000.71
2023-11-23 04:50:00,SystemResetWarning,0828.1,5.00,000.00,026.2,025.3,000.0,034.5,027.5,8.4,0000.0,0001.53,0007.99,0000.71
2023-11-23 04:51:00,SystemResetWarning,0828.1,5.00,000.00,026.2,025.3,000.0,034.5,027.5,8.3,0000.0,0001.45,0007.44,0000.71
2023-11-23 04:52:00,SystemResetWarning,0828.1,5.00,000.00,026.2,025.3,000.0,034.5,027.5,8.3,0000.0,0001.40,0007.02,0000.70
2023-11-23 04:53:00,SystemResetWarning,0828.1,4.99,000.00,026.2,025.3,000.0,034.5,027.5,8.3,0000.0,0001.42,0005.51,0000.69
2023-11-23 04:54:00,SystemResetWarning,0828.1,5.00,000.00,026.2,025.3,000.0,034.5,027.5,8.3,0000.0,0001.47,0005.54,0000.69
2023-11-23 04:55:00,SystemResetWarning,0828.1,5.00,000.00,026.2,025.3,000.0,034.5,027.5,8.3,0000.0,0001.52,0005.70,0000.69
2023-11-23 04:56:00,SystemResetWarning,0828.1,5.00,000.00,026.2,025.3,000.0,034.5,027.5,8.3,0000.0,0001.45,0004.84,0000.69
2023-11-23 04:57:00,SystemResetWarning,0828.1,4.99,000.00,026.2,025.3,000.0,034.5,027.5,8.3,0000.0,0001.33,0004.49,0000.68
2023-11-23 04:58:00,SystemResetWarning,0828.1,5.00,000.00,026.2,025.3,000.0,034.5,027.5,8.3,0000.0,0001.31,0005.05,0000.68
2023-11-23 04:59:00,SystemResetWarning,0828.2,4.99,000.00,026.2,025.3,000.0,034.5,027.5,8.3,0000.0,0001.31,0005.54,0000.68
